Location: ???? ????
(31.2831°N, 45.5190°E)
Time: 04:20:15
(UTC+00:00)

ARGOS - Pass Details

Date: 24 February 2021
Orbit: 819 x 835 km, 98.4° (Epoch: 14 April)

Event Time Altitude Azimuth Distance (km) Brightness Sun altitude
Rises 16:33:06 0° 180° (S) 3,353 6.3 -22.2°
Reaches altitude 10° 16:35:31 10° 186° (S) 2,425 5.6 -22.8°
Maximum altitude 16:40:42 48° 260° (W) 1,075 4.1 -23.9°
Drops below altitude 10° 16:45:56 10° 335° (NNW) 2,447 5.9 -25.0°
Sets 16:48:23 0° 341° (NNW) 3,385 6.6 -25.5°
